Weather in Tel'viska

Russia / Nenets Autonomous Okrug     67°38′00″N   52°53′11″E
temp.,
°C
wind,
m/s
gust,
m/s
humid.,
%
clouds,
%
prec.,
mm/h
press.,
hPa
HPBL,
m
1 march, mon
mon100:00−12ssw6109699 0.1 1004201
03:00−9ssw8139499 0.3 1002358
06:00−6s91494100 0.8 997525
09:00−4ssw91595100 1.8 992710
12:00−4ssw101595100 1.8 987781
15:00−2ssw101596100 3.5 984615
18:00+1wnw81498100 1.2 982659
21:000w61196100 1.3 983491
2 march, tue
tue200:00−3wsw5995100 0.1 983225
03:00−3wsw5896100 0.3 984257
06:00−4wsw5795100 0.0 984200
09:00−5sw4696100 0.1 985180
12:00−4wsw359699 0.3 986213
15:00−4nw359697 0.6 987142
18:00−8wnw2387100 0.1 98721
21:00−11wsw128789 0.1 98821
3 march, wed
wed300:00−14sw119322 0.0 98821
03:00−14ne229614 0.0 98921
06:00−16ne449887 0.0 98968
09:00−17nne479694 0.1 991169
12:00−15n469599 0.0 991248
15:00−15n469599 0.1 992260
18:00−15nnw359698 0.2 992121
21:00−15nw339697 0.3 99354
4 march, thu
thu400:00−14nne239698 0.2 99339
03:00−15ne599598 0.4 993255
06:00−16ne599599 0.1 993294
09:00−17ne61095100 0.3 994383
12:00−17ne61093100 0.1 995407
15:00−18ne51094100 0.1 996404
18:00−20nne51098100 0.0 997218
21:00−20nne51097100 0.1 997243
5 march, fri
fri500:00−23n51098100 0.0 998209
03:00−25n5898100 0.1 998138
06:00−25n499898 0.0 999151
09:00−22n589597 0.1 999312
12:00−20n579498 0.1 1001443
15:00−20n589499 0.1 1002469
18:00−22nnw489793 0.1 1003169
21:00−22nnw599696 0.1 1004276